Date,TemperatureHighF,TemperatureAvgF,TemperatureLowF,DewpointHighF,DewpointAvgF,DewpointLowF,HumidityHigh,HumidityAvg,HumidityLow,PressureMaxIn,PressureMinIn,WindSpeedMaxMPH,WindSpeedAvgMPH,GustSpeedMaxMPH,PrecipitationSumIn
2013-2-1,73.4,58.4,47.8,44.0,38.6,32.4,85,50,29,30.08,29.99,9,4,0,0.00
2013-2-2,75.0,53.5,43.3,49.7,43.2,35.3,99,70,38,30.17,30.08,13,4,0,0.00
2013-2-3,69.8,51.2,43.2,47.4,44.5,42.9,99,81,43,30.10,29.99,10,4,0,0.00
2013-2-4,72.3,52.4,40.5,49.5,44.4,40.2,99,77,44,30.03,29.92,8,3,0,0.00
2013-2-5,60.8,45.8,39.6,47.8,41.6,38.4,99,87,57,30.02,29.90,12,5,0,0.00
2013-2-6,63.5,47.2,37.9,41.3,38.4,35.3,97,74,39,30.07,29.96,17,7,0,0.00
2013-2-7,55.9,44.2,36.0,44.4,38.5,32.5,99,82,49,30.01,29.81,17,7,0,0.08
2013-2-8,62.4,45.6,34.7,36.4,32.5,21.4,99,65,21,29.86,29.77,11,3,0,0.00
2013-2-9,68.9,50.2,35.8,30.1,24.9,19.4,78,40,15,29.93,29.84,13,4,0,0.00
2013-2-10,73.2,55.2,44.4,40.8,29.8,22.9,60,39,23,29.96,29.87,9,3,0,0.00
2013-2-11,77.7,56.8,46.0,35.9,28.9,21.6,62,36,17,30.09,29.96,14,4,0,0.00
2013-2-12,70.7,52.5,38.8,42.4,37.8,33.2,82,60,30,30.23,30.09,14,4,0,0.00
2013-2-13,71.6,55.2,44.6,44.4,40.8,35.7,80,60,33,30.21,30.07,11,4,0,0.00
2013-2-14,82.8,65.6,54.5,44.5,35.3,30.2,54,34,19,30.11,30.03,11,4,0,0.00
2013-2-15,82.2,64.6,54.0,44.7,35.4,27.2,63,36,18,30.13,30.06,14,4,0,0.00
2013-2-16,80.6,60.8,50.5,45.7,39.7,35.2,63,47,27,30.11,29.89,11,4,0,0.00
2013-2-17,72.1,53.1,39.9,43.7,37.8,31.9,88,59,33,29.90,29.82,14,6,0,0.00
2013-2-18,54.7,43.1,36.3,41.3,37.9,34.5,99,83,59,29.88,29.77,13,6,0,0.00
2013-2-19,49.1,39.4,32.7,41.3,34.6,29.5,99,84,56,29.80,29.58,17,8,0,0.24
2013-2-20,61.3,44.0,32.7,36.1,32.5,29.6,90,68,37,29.91,29.70,17,8,0,0.00
2013-2-21,66.7,48.8,36.5,35.7,32.0,27.4,87,57,24,30.03,29.90,12,5,0,0.00
2013-2-22,66.0,51.3,40.5,39.7,35.9,30.5,79,58,31,30.13,30.00,12,7,0,0.00
2013-2-23,66.2,49.3,39.4,40.6,32.6,20.0,92,57,25,30.12,29.99,12,5,0,0.00
2013-2-24,77.0,54.0,41.0,35.1,24.2,17.4,65,35,12,30.12,30.00,16,3,0,0.00
2013-2-25,73.2,52.0,39.0,41.0,33.3,18.4,85,55,18,30.12,30.03,11,6,0,0.00
2013-2-26,81.3,60.5,41.2,33.7,24.5,16.2,68,29,12,30.10,30.02,10,4,0,0.00
2013-2-27,77.2,58.2,43.5,44.5,32.7,23.6,82,41,21,30.24,30.08,13,5,0,0.00
2013-2-28,76.5,58.6,47.3,52.2,48.5,44.7,92,72,40,30.32,30.23,11,6,0,0.00